Date,TemperatureHighF,TemperatureAvgF,TemperatureLowF,DewpointHighF,DewpointAvgF,DewpointLowF,HumidityHigh,HumidityAvg,HumidityLow,PressureMaxIn,PressureMinIn,WindSpeedMaxMPH,WindSpeedAvgMPH,GustSpeedMaxMPH,PrecipitationSumIn
2012-9-7,76,68,60,64,59,53,86,75,65,30.10,29.96,12,5,12,0.15
2012-9-8,85,66,51,53,49,46,85,60,28,30.19,30.03,11,2,11,0.00
2012-9-9,91,68,53,53,49,44,71,53,28,30.25,30.02,7,2,7,0.00
2012-9-10,85,67,51,55,51,45,82,59,34,30.22,30.06,9,2,9,0.00
2012-9-11,92,75,61,59,55,52,77,53,26,30.09,30.00,10,3,10,0.00
2012-9-12,89,79,65,62,59,46,77,51,38,30.18,30.04,14,4,14,0.00
2012-9-13,68,57,53,55,51,43,90,83,42,30.43,30.18,18,5,18,0.30
2012-9-14,79,60,50,54,49,45,90,70,33,30.44,30.34,8,1,8,0.00
2012-9-15,79,63,49,54,49,43,84,63,34,30.35,30.16,16,4,16,0.00
2012-9-16,79,63,56,65,57,50,93,81,59,30.17,30.00,6,1,6,0.00
2012-9-17,82,64,50,65,56,45,90,76,50,30.07,29.93,13,2,13,0.00
2012-9-18,82,59,43,46,41,36,87,59,22,30.16,30.05,10,2,10,0.00
2012-9-19,86,68,53,54,48,40,68,50,31,30.07,29.87,19,4,19,0.00
2012-9-20,81,66,50,49,40,30,67,43,19,30.10,30.01,13,2,13,0.00
2012-9-21,85,68,54,48,42,33,67,43,18,30.02,29.86,20,4,20,0.00
2012-9-22,78,59,46,40,34,28,70,44,17,30.32,29.98,12,3,12,0.00
2012-9-23,83,56,37,39,34,29,77,49,17,30.39,30.25,10,0,10,0.00
2012-9-24,78,62,46,56,46,37,74,58,37,30.27,29.88,12,2,12,0.00
2012-9-25,98,75,62,66,60,55,82,63,35,29.95,29.82,8,2,8,0.00
2012-9-26,76,68,65,64,59,46,87,73,51,30.16,29.90,7,1,7,0.01
2012-9-27,81,66,55,53,47,43,66,52,31,30.24,30.15,9,2,9,0.00
2012-9-28,85,64,52,51,46,42,82,57,24,30.25,30.15,10,2,10,0.00
2012-9-29,89,63,45,51,43,37,79,53,21,30.22,30.08,10,1,10,0.00
2012-9-30,85,67,52,50,45,43,72,50,25,30.09,29.93,8,1,8,0.00
2012-10-1,88,67,55,51,46,36,72,49,26,29.96,29.87,17,2,17,0.00
2012-10-2,93,66,50,52,43,36,63,45,21,30.00,29.90,8,2,8,0.00
2012-10-3,84,64,46,49,42,35,80,49,19,30.02,29.92,12,1,12,0.00
2012-10-4,62,56,47,50,44,40,81,66,55,30.30,30.01,16,3,16,0.04
2012-10-5,56,46,35,41,33,27,78,61,46,30.35,30.27,14,3,14,0.00
2012-10-6,53,42,35,31,28,26,79,60,40,30.39,30.29,12,2,12,0.00
2012-10-7,67,46,28,31,26,22,80,51,23,30.34,30.15,13,0,13,0.00
2012-10-8,69,47,37,36,30,25,71,54,29,30.16,30.00,20,3,20,0.00
2012-10-9,70,55,41,44,37,24,67,50,39,30.18,29.94,11,2,11,0.00
2012-10-10,75,51,32,33,28,23,71,45,19,30.31,30.17,9,0,9,0.00
2012-10-11,74,58,43,52,40,30,66,54,40,30.29,30.08,18,1,18,0.00
2012-10-12,58,54,49,50,35,27,75,50,38,30.37,30.11,16,7,16,0.00
2012-10-13,69,61,56,66,59,50,95,91,75,30.12,29.84,12,5,12,0.39
2012-10-15,80,68,45,48,46,41,84,48,30,30.06,29.87,8,0,8,0.00
2012-10-16,85,69,57,54,51,47,77,55,32,29.87,29.55,18,5,18,0.00
2012-10-17,70,61,51,56,47,28,83,61,34,29.67,29.48,22,4,22,0.02
2012-10-18,57,49,46,42,32,26,85,54,33,29.68,29.62,30,9,30,0.01
2012-10-19,50,47,44,42,41,40,89,80,74,29.88,29.65,23,7,23,0.07
2012-10-20,74,55,37,47,40,33,87,62,30,29.91,29.79,0,0,0,0.00
2012-10-21,83,65,50,65,55,42,81,70,53,29.88,29.80,14,0,14,0.00
2012-10-22,84,73,68,69,66,62,90,79,54,29.88,29.80,9,0,9,0.10
2012-10-23,82,73,68,67,65,62,88,76,58,29.88,29.75,19,5,19,0.03
2012-10-24,86,75,68,68,65,62,89,73,52,29.87,29.74,22,8,22,0.00
2012-10-25,74,52,39,63,44,29,91,74,61,30.34,29.68,24,10,24,0.06
2012-10-26,59,43,35,33,29,26,76,59,34,30.50,30.33,15,3,15,0.00
2012-10-27,60,40,26,33,26,20,81,60,31,30.44,30.29,6,0,6,0.00
2012-10-28,68,45,29,34,27,22,77,53,26,30.38,30.28,6,0,6,0.00
2012-10-29,50,42,39,32,27,25,60,56,47,30.34,30.28,13,2,13,0.00
2012-10-30,61,48,34,32,28,25,78,47,29,30.13,30.05,12,3,12,0.00
2012-10-31,72,50,33,37,30,25,74,51,24,30.12,30.03,8,2,8,0.00
2012-11-1,79,56,38,46,38,29,74,54,30,30.05,29.94,12,2,12,0.00
2012-11-2,63,50,39,39,33,31,76,56,31,30.05,29.93,19,6,19,0.00
2012-11-3,75,51,36,38,32,27,73,51,25,30.24,30.03,10,3,10,0.00
2012-11-4,63,49,36,42,35,26,85,61,39,30.25,30.06,12,1,12,0.07
2012-11-5,47,44,41,45,41,38,91,89,85,30.16,30.02,13,4,13,0.10
2012-11-6,64,48,40,44,36,31,92,67,32,30.13,30.00,19,6,19,0.00
2012-11-7,72,48,35,40,33,30,82,59,30,30.23,30.09,9,2,9,0.00
2012-11-8,70,52,37,42,37,31,81,59,35,30.15,29.94,15,3,15,0.00
2012-11-9,76,62,50,58,50,40,78,66,52,29.95,29.80,14,4,14,0.00
2012-11-10,69,66,64,57,56,56,77,72,65,29.82,29.80,17,9,17,0.00
2012-11-13,59,58,56,35,34,30,45,41,37,30.42,30.40,7,4,7,0.00
2012-11-14,62,52,39,34,28,23,70,41,24,30.43,30.30,12,3,12,0.00
2012-11-15,59,47,38,38,32,26,71,56,40,30.42,30.28,7,0,7,0.00
2012-11-16,69,48,34,43,34,28,81,60,33,30.50,30.39,7,1,7,0.00
2012-11-17,63,49,38,38,33,28,77,56,28,30.41,30.29,14,3,14,0.00
2012-11-18,64,52,40,37,33,29,67,49,34,30.31,30.18,15,4,15,0.00
2012-11-19,70,56,46,48,42,34,81,61,45,30.18,30.08,17,3,17,0.00
2012-11-20,78,52,39,48,39,32,82,63,35,30.24,30.13,9,2,9,0.00
2012-11-21,75,58,40,45,39,31,81,52,29,30.23,30.00,18,4,18,0.00
2012-11-22,73,58,42,53,43,34,72,57,37,30.27,29.87,20,8,20,0.00
2012-11-23,44,36,25,34,18,11,73,49,31,30.49,30.26,25,8,25,0.00
2012-11-24,46,33,21,25,18,11,72,54,36,30.44,29.92,18,2,18,0.00
2012-11-25,67,45,32,36,28,22,72,53,32,30.12,29.92,10,3,10,0.00
2012-11-26,40,32,20,27,22,10,78,68,54,30.49,30.11,15,5,15,0.00
2012-11-27,44,28,14,19,13,7,74,55,31,30.48,30.28,12,2,12,0.00
2012-11-28,57,39,21,32,24,14,74,56,36,30.44,30.20,8,2,8,0.00
2012-11-29,62,46,37,41,34,26,76,63,45,30.20,30.01,14,2,14,0.00
2012-11-30,64,48,38,40,35,31,79,61,40,30.12,30.02,11,2,11,0.00
2012-12-1,64,55,45,58,50,35,93,84,68,30.05,29.84,11,2,11,0.00
2012-12-2,73,53,41,55,45,37,93,76,47,30.07,29.90,9,2,9,0.01
2012-12-3,73,60,48,59,50,35,92,71,48,30.08,29.76,25,8,25,0.00
2012-12-4,71,49,35,39,30,24,74,50,21,30.34,30.08,9,2,9,0.00
2012-12-5,61,45,33,34,29,23,71,55,31,30.36,30.04,14,2,14,0.00
2012-12-6,52,47,43,42,37,32,80,69,55,30.05,29.91,10,1,10,0.00
2012-12-7,48,44,39,40,38,35,86,81,73,30.01,29.90,11,3,11,0.01
2012-12-8,45,38,31,36,33,28,92,82,69,30.05,29.92,11,2,11,0.04
2012-12-9,44,35,21,39,28,12,93,78,53,30.10,29.87,23,8,23,0.02
2012-12-10,37,23,18,18,11,6,72,59,32,30.13,30.02,17,6,17,0.00
2012-12-11,52,33,20,25,16,9,65,51,29,30.16,30.00,10,2,10,0.00
2012-12-12,53,38,26,22,16,12,68,44,20,30.23,30.11,20,5,20,0.00
2012-12-13,59,43,33,24,19,14,56,40,25,30.17,30.10,19,4,19,0.00
2012-12-14,52,44,34,41,30,20,89,57,44,30.13,29.74,18,3,18,0.09
2012-12-15,54,47,41,47,43,36,94,85,76,29.77,29.54,18,8,18,0.21
2012-12-16,41,38,37,37,34,33,87,85,83,29.84,29.74,7,2,7,0.00
2012-12-17,46,38,34,35,32,29,85,80,64,29.83,29.74,11,1,11,0.00
2012-12-18,56,45,35,37,33,28,83,63,48,29.94,29.65,20,6,20,0.00
2012-12-19,38,36,34,35,32,29,94,86,77,29.95,29.53,26,7,26,0.34
2012-12-20,36,26,20,34,23,15,95,88,78,30.23,29.47,29,13,29,0.02
2012-12-21,47,29,17,27,17,11,80,63,35,30.38,30.23,11,3,11,0.00
2012-12-22,51,35,23,28,21,14,73,58,38,30.26,29.96,12,3,12,0.00
2012-12-23,45,31,20,26,20,15,78,66,44,30.04,29.95,12,2,12,0.00
2012-12-24,27,21,18,17,14,12,85,75,61,30.22,29.97,14,6,14,0.00
2012-12-25,26,17,12,12,9,5,78,70,53,30.39,30.21,17,6,17,0.00
2012-12-26,42,22,9,21,11,3,79,64,40,30.28,30.18,9,3,9,0.00
2012-12-27,35,24,16,24,18,10,84,78,65,30.19,29.98,16,6,16,0.00
2012-12-28,31,28,23,25,22,17,83,80,76,30.08,29.96,13,5,13,0.00
2012-12-29,39,26,19,20,17,14,83,70,46,30.29,30.08,14,6,14,0.00
2012-12-30,45,33,20,24,19,13,80,60,40,30.31,30.10,18,6,18,0.00
2012-12-31,36,29,20,26,22,14,83,74,60,30.22,30.09,12,5,12,0.00
2013-1-1,35,19,11,16,8,2,80,63,42,30.33,30.21,8,2,8,0.00